Flag for Russia Weather past 2 weeks in Kaliningrad, Russia

Now
68 °F

Passing clouds.


Feels Like: 68 °F
Forecast: 46 / 70 °F
Wind: 10 mph from Northeast

Location: Kaliningrad/Khrabrovo Airport


UV Index: 0 (Low)

Visibility: N/A


Pressure: 30.15 "Hg

Humidity: 49%

Dew point: 48 °F

Location of KaliningradLocation

Historic Weather in Kaliningrad

°F

Kaliningrad temperature yesterday

Maximum temperature yesterday: 61 °F (at 2:00 PM)
Minimum temperature yesterday: 39 °F (at 5:30 AM)
Average temperature yesterday: 50 °F

Past Weeks' High & Low Weather Summary

 TemperatureHumidityPressure
High70 °F (Apr 8, 5:30 PM)94% (Apr 7, 11:00 AM)30.39 "Hg (Apr 7, 11:00 AM)
Low27 °F (Apr 5, 4:00 AM)24% (Apr 5, 3:30 PM)29.56 "Hg (Apr 14, 1:00 PM)
Average46 °F71%29.97 "Hg
* Reported Apr 4 4:00 PM — Apr 19 4:30 PM, Kaliningrad, Weather by CustomWeather, © 2014

Note: Actual official high and low records may vary slightly from our data, if they occured in-between our weather recording intervals... More about our weather records

Advertising

Historic Weather Conditions — Data for Previous 24 hours

 ConditionsComfort  
Time TempWeatherWind HumidityBarometerVisibility
4:30 PM
Apr 19
68 °FScattered clouds.10 mph49%30.15 "HgN/A
4:00 PM68 °FPassing clouds.10 mph49%30.15 "HgN/A
3:30 PM68 °FPassing clouds.10 mph49%30.15 "HgN/A
3:00 PM70 °FPassing clouds.10 mph46%30.15 "HgN/A
2:30 PM70 °FPassing clouds.8 mph43%30.18 "HgN/A
2:00 PM70 °FPassing clouds.8 mph46%30.18 "HgN/A
1:30 PM68 °FPassing clouds.8 mph53%30.18 "HgN/A
1:00 PM66 °FPassing clouds.8 mph52%30.18 "HgN/A
12:30 PM64 °FPassing clouds.8 mph60%30.18 "HgN/A
12:00 PM61 °FSunny.6 mph68%30.18 "Hg10 mi
11:30 AM59 °FPassing clouds.6 mph68%30.18 "HgN/A
11:00 AM59 °FPassing clouds.6 mph68%30.18 "HgN/A
10:30 AM59 °FPassing clouds.6 mph68%30.18 "HgN/A
10:00 AM55 °FPassing clouds.3 mph77%30.18 "HgN/A
9:30 AM55 °FPassing clouds.6 mph72%30.15 "HgN/A
9:00 AM54 °FClear.6 mph77%30.15 "Hg5 mi
8:30 AM52 °FPartly sunny.6 mph77%30.15 "Hg5 mi
8:00 AM48 °FPartly cloudy.1 mph87%30.15 "Hg5 mi
7:30 AM46 °FPartly cloudy.1 mph87%30.15 "Hg5 mi
7:00 AM45 °FPartly cloudy.1 mph93%30.15 "Hg5 mi
6:30 AM43 °FPassing clouds.3 mph93%30.12 "Hg5 mi
6:00 AM46 °FPassing clouds.3 mph87%30.12 "Hg5 mi
5:30 AM46 °FPassing clouds.3 mph87%30.12 "Hg5 mi
5:00 AM45 °FPassing clouds.1 mph87%30.12 "Hg5 mi
4:30 AM48 °FPassing clouds.3 mph82%30.12 "Hg5 mi
4:00 AM48 °FPartly cloudy.3 mph82%30.12 "Hg5 mi
3:00 AM46 °FPartly cloudy.3 mph87%30.09 "Hg4 mi
2:00 AM46 °FClear.3 mph87%30.09 "Hg4 mi
1:00 AM45 °FClear.6 mph87%30.07 "Hg5 mi
12:30 AM48 °FClear.6 mph82%30.07 "Hg10 mi
12:00 AM48 °FPassing clouds.3 mph82%30.04 "HgN/A
11:30 PM
Apr 18
48 °FPassing clouds.6 mph82%30.04 "HgN/A
11:00 PM48 °FPartly cloudy.3 mph82%30.04 "HgN/A
10:30 PM50 °FBroken clouds.3 mph71%30.04 "HgN/A
10:00 PM50 °FBroken clouds.3 mph71%30.01 "HgN/A
9:30 PM52 °FPartly sunny.3 mph67%30.01 "HgN/A
9:00 PM52 °FPartly sunny.3 mph67%29.98 "HgN/A
8:30 PM54 °FScattered clouds.6 mph63%29.98 "HgN/A
8:00 PM55 °FScattered clouds.6 mph59%29.98 "HgN/A
7:30 PM57 °FScattered clouds.8 mph55%29.95 "HgN/A
7:00 PM57 °FBroken clouds.10 mph51%29.95 "HgN/A
6:30 PM59 °FBroken clouds.10 mph48%29.92 "HgN/A
6:00 PM59 °FBroken clouds.8 mph48%29.92 "HgN/A
5:30 PM59 °FPartly sunny.10 mph48%29.92 "HgN/A
5:00 PM59 °FPartly sunny.13 mph48%29.92 "HgN/A
Weather by CustomWeather, © 2014

See weather overview